AFV556 FALE-FQBR

Flight info

Callsign AFV556
Flight time 1h 36m
Altitude 35000
Route ITMIL1C ITMIL UB529 VMA UM310 ETLAM ETLAM1A
Aircraft B738/M-SABDFGRVYL/LB2

Departure

Time 2026-05-07 18:18
Airport King Shaka International Airport (FALE)

Arrival

Time 2026-05-07 19:54
Airport Beira International Airport (FQBR)
Time Latitude Longitude Altitude Speed Heading
2026-05-07 17:44 -29.61935 31.10606 298 ft 0 kts 307°
2026-05-07 18:10 -29.61941 31.10614 295 ft 2 kts 307°
2026-05-07 18:10 -29.61949 31.10626 296 ft 1 kts 307°
2026-05-07 18:10 -29.61957 31.10640 296 ft 2 kts 287°
2026-05-07 18:11 -29.61959 31.10652 296 ft 2 kts 270°
2026-05-07 18:11 -29.61956 31.10669 296 ft 2 kts 246°
2026-05-07 18:11 -29.61948 31.10682 297 ft 1 kts 223°
2026-05-07 18:11 -29.61942 31.10688 297 ft 0 kts 218°
2026-05-07 18:14 -29.61960 31.10672 296 ft 9 kts 218°
2026-05-07 18:14 -29.62007 31.10630 294 ft 14 kts 218°
2026-05-07 18:14 -29.62092 31.10557 291 ft 16 kts 216°
2026-05-07 18:14 -29.62193 31.10469 285 ft 19 kts 220°
2026-05-07 18:15 -29.62313 31.10511 283 ft 14 kts 126°
2026-05-07 18:15 -29.62366 31.10594 286 ft 12 kts 128°
2026-05-07 18:15 -29.62401 31.10643 288 ft 0 kts 129°
2026-05-07 18:16 -29.62419 31.10670 289 ft 9 kts 129°
2026-05-07 18:16 -29.62469 31.10777 295 ft 9 kts 87°
2026-05-07 18:17 -29.62452 31.10815 297 ft 7 kts 55°
2026-05-07 18:17 -29.62260 31.10987 307 ft 67 kts 38°
2026-05-07 18:17 -29.61916 31.11292 318 ft 116 kts 37°
2026-05-07 18:17 -29.61081 31.12008 348 ft 175 kts 35°
2026-05-07 18:18 -29.59649 31.13114 1117 ft 195 kts 33°
2026-05-07 18:18 -29.58430 31.14029 1596 ft 224 kts 35°
2026-05-07 18:18 -29.57032 31.15087 2053 ft 250 kts 34°
2026-05-07 18:18 -29.56050 31.15831 2397 ft 258 kts 34°
2026-05-07 18:19 -29.54056 31.17346 3203 ft 270 kts 35°
2026-05-07 18:19 -29.52990 31.18152 3608 ft 276 kts 35°
2026-05-07 18:19 -29.50864 31.19761 4869 ft 268 kts 34°
2026-05-07 18:19 -29.49343 31.20949 5818 ft 262 kts 34°
2026-05-07 18:20 -29.47960 31.22372 6446 ft 272 kts 45°
2026-05-07 18:20 -29.46784 31.24036 7276 ft 270 kts 50°
2026-05-07 18:20 -29.45998 31.25191 7697 ft 274 kts 49°
2026-05-07 18:20 -29.44780 31.26909 8271 ft 282 kts 48°
2026-05-07 18:21 -29.43481 31.28655 8866 ft 288 kts 46°
2026-05-07 18:21 -29.42148 31.30394 9490 ft 293 kts 46°
2026-05-07 18:21 -29.40293 31.32793 10257 ft 303 kts 46°
2026-05-07 18:21 -29.38862 31.34649 10618 ft 318 kts 46°
2026-05-07 18:22 -29.37369 31.36601 10960 ft 333 kts 46°
2026-05-07 18:22 -29.36859 31.37269 11071 ft 338 kts 46°
2026-05-07 18:22 -29.34726 31.40061 11554 ft 357 kts 46°
2026-05-07 18:22 -29.33043 31.42254 11889 ft 371 kts 46°
2026-05-07 18:23 -29.31308 31.44518 12415 ft 379 kts 46°
2026-05-07 18:23 -29.28955 31.47588 13282 ft 384 kts 46°
2026-05-07 18:23 -29.27027 31.49709 13982 ft 380 kts 31°
2026-05-07 18:23 -29.25491 31.50694 14444 ft 377 kts 20°
2026-05-07 18:24 -29.22150 31.51981 15318 ft 379 kts 12°
2026-05-07 18:24 -29.19575 31.52752 15972 ft 382 kts 11°
2026-05-07 18:24 -29.17842 31.53279 16390 ft 386 kts 11°
2026-05-07 18:24 -29.15267 31.54123 17046 ft 389 kts 12°
2026-05-07 18:25 -29.12651 31.55059 17686 ft 393 kts 13°
2026-05-07 18:25 -29.10006 31.56063 18246 ft 399 kts 13°
2026-05-07 18:25 -29.06490 31.57447 19161 ft 401 kts 14°
2026-05-07 18:25 -29.04688 31.58164 19553 ft 403 kts 13°
2026-05-07 18:26 -29.01129 31.59579 20388 ft 406 kts 13°
2026-05-07 18:26 -28.99346 31.60288 20845 ft 405 kts 13°
2026-05-07 18:26 -28.96638 31.61362 21361 ft 409 kts 12°
2026-05-07 18:26 -28.93918 31.62439 21884 ft 413 kts 12°
2026-05-07 18:27 -28.91201 31.63514 22512 ft 412 kts 12°
2026-05-07 18:27 -28.88456 31.64598 23012 ft 416 kts 12°
2026-05-07 18:27 -28.84768 31.66054 23725 ft 418 kts 11°
2026-05-07 18:27 -28.82946 31.66773 24024 ft 421 kts 11°
2026-05-07 18:28 -28.80140 31.67877 24506 ft 423 kts 11°
2026-05-07 18:28 -28.77319 31.68986 24979 ft 426 kts 11°
2026-05-07 18:28 -28.74487 31.70098 25470 ft 428 kts 11°
2026-05-07 18:28 -28.71657 31.71209 25825 ft 432 kts 11°
2026-05-07 18:29 -28.68797 31.72333 26357 ft 433 kts 11°
2026-05-07 18:29 -28.64958 31.73841 26858 ft 438 kts 11°
2026-05-07 18:29 -28.63022 31.74598 27121 ft 440 kts 11°
2026-05-07 18:29 -28.59108 31.76131 27642 ft 443 kts 11°
2026-05-07 18:30 -28.57176 31.76890 28022 ft 442 kts 10°
2026-05-07 18:30 -28.54249 31.78037 28282 ft 447 kts 11°
2026-05-07 18:30 -28.50277 31.79594 28880 ft 447 kts 10°
2026-05-07 18:30 -28.48289 31.80373 29098 ft 449 kts 10°
2026-05-07 18:31 -28.44350 31.81918 29813 ft 445 kts 10°
2026-05-07 18:31 -28.41447 31.83060 30360 ft 441 kts 10°
2026-05-07 18:31 -28.39493 31.83828 30697 ft 439 kts
2026-05-07 18:31 -28.35634 31.85338 31144 ft 440 kts
2026-05-07 18:32 -28.33707 31.86090 31382 ft 439 kts
2026-05-07 18:32 -28.30802 31.87224 31838 ft 437 kts
2026-05-07 18:32 -28.26957 31.88723 32314 ft 435 kts
2026-05-07 18:32 -28.25044 31.89469 32560 ft 435 kts
2026-05-07 18:33 -28.22186 31.90584 32938 ft 433 kts
2026-05-07 18:33 -28.19301 31.91708 33270 ft 432 kts
2026-05-07 18:33 -28.16446 31.92817 33573 ft 432 kts
2026-05-07 18:33 -28.12662 31.94285 34013 ft 431 kts
2026-05-07 18:34 -28.10746 31.95028 34254 ft 430 kts
2026-05-07 18:34 -28.06958 31.96496 34625 ft 431 kts
2026-05-07 18:34 -28.04112 31.97598 34899 ft 430 kts
2026-05-07 18:35 -27.99359 31.99434 34933 ft 433 kts
2026-05-07 18:35 -27.92667 32.02027 34922 ft 431 kts
2026-05-07 18:36 -27.87935 32.03858 34917 ft 431 kts
2026-05-07 18:36 -27.81261 32.06436 34911 ft 431 kts
2026-05-07 18:37 -27.76506 32.08270 34912 ft 431 kts
2026-05-07 18:37 -27.70815 32.10462 34907 ft 430 kts
2026-05-07 18:38 -27.65116 32.12655 34907 ft 434 kts
2026-05-07 18:38 -27.59383 32.14864 34908 ft 432 kts
2026-05-07 18:39 -27.53664 32.17063 34900 ft 430 kts
2026-05-07 18:39 -27.47975 32.19246 34899 ft 431 kts
2026-05-07 18:40 -27.42247 32.21439 34902 ft 432 kts
2026-05-07 18:40 -27.36533 32.23630 34903 ft 430 kts
2026-05-07 18:41 -27.29870 32.26173 34900 ft 432 kts
2026-05-07 18:41 -27.24120 32.28368 34910 ft 435 kts
2026-05-07 18:42 -27.19381 32.30181 34910 ft 431 kts
2026-05-07 18:42 -27.12686 32.32735 34912 ft 436 kts
2026-05-07 18:43 -27.06939 32.34928 34915 ft 431 kts
2026-05-07 18:43 -27.02189 32.36736 34907 ft 432 kts
2026-05-07 18:44 -26.96448 32.38913 34908 ft 435 kts
2026-05-07 18:44 -26.90646 32.41113 34899 ft 433 kts
2026-05-07 18:45 -26.83950 32.43337 34901 ft 424 kts
2026-05-07 18:45 -26.79122 32.44320 34900 ft 420 kts 359°
2026-05-07 18:46 -26.73286 32.45296 34901 ft 421 kts 358°
2026-05-07 18:46 -26.67471 32.46260 34899 ft 422 kts 359°
2026-05-07 18:47 -26.61639 32.47258 34905 ft 422 kts 359°
2026-05-07 18:47 -26.54825 32.48445 34906 ft 423 kts 359°
2026-05-07 18:48 -26.49958 32.49305 34899 ft 421 kts 359°
2026-05-07 18:48 -26.43246 32.50490 34901 ft 423 kts 359°
2026-05-07 18:49 -26.37377 32.51525 34906 ft 423 kts 359°
2026-05-07 18:49 -26.32517 32.52385 34901 ft 422 kts 359°
2026-05-07 18:50 -26.26656 32.53418 34903 ft 424 kts 359°
2026-05-07 18:50 -26.20838 32.54445 34902 ft 422 kts 360°
2026-05-07 18:51 -26.14976 32.55471 34901 ft 427 kts 359°
2026-05-07 18:51 -26.09063 32.56509 34896 ft 425 kts 360°
2026-05-07 18:52 -26.02242 32.57709 34898 ft 424 kts 360°
2026-05-07 18:52 -25.96350 32.58739 34896 ft 425 kts
2026-05-07 18:53 -25.90492 32.59765 34898 ft 428 kts 360°
2026-05-07 18:53 -25.85576 32.60850 34902 ft 433 kts
2026-05-07 18:54 -25.79756 32.62797 34901 ft 438 kts
2026-05-07 18:54 -25.73965 32.64957 34899 ft 439 kts
2026-05-07 18:55 -25.68120 32.67144 34899 ft 438 kts
2026-05-07 18:55 -25.62287 32.69300 34904 ft 441 kts
2026-05-07 18:56 -25.55483 32.71795 34904 ft 439 kts
2026-05-07 18:56 -25.50607 32.73565 34905 ft 439 kts
2026-05-07 18:57 -25.44062 32.75926 34904 ft 440 kts
2026-05-07 18:57 -25.39177 32.77685 34905 ft 440 kts
2026-05-07 18:58 -25.33338 32.79788 34904 ft 441 kts
2026-05-07 18:58 -25.27450 32.81907 34905 ft 441 kts
2026-05-07 18:59 -25.21706 32.83978 34904 ft 439 kts
2026-05-07 18:59 -25.15952 32.86045 34904 ft 442 kts
2026-05-07 19:00 -25.10095 32.88144 34904 ft 442 kts
2026-05-07 19:00 -25.04201 32.90255 34906 ft 442 kts
2026-05-07 19:01 -24.97354 32.92707 34906 ft 444 kts
2026-05-07 19:01 -24.92420 32.94472 34908 ft 443 kts
2026-05-07 19:02 -24.85668 32.96886 34906 ft 443 kts
2026-05-07 19:02 -24.79744 32.98998 34908 ft 445 kts
2026-05-07 19:03 -24.74790 33.00764 34908 ft 444 kts
2026-05-07 19:03 -24.68923 33.02855 34912 ft 444 kts
2026-05-07 19:04 -24.62978 33.04967 34909 ft 445 kts
2026-05-07 19:04 -24.57045 33.07086 34913 ft 447 kts 10°
2026-05-07 19:05 -24.51151 33.09421 34915 ft 448 kts 12°
2026-05-07 19:05 -24.45302 33.11863 34918 ft 450 kts 13°
2026-05-07 19:06 -24.38434 33.14725 34916 ft 449 kts 13°
2026-05-07 19:06 -24.30790 33.17878 34920 ft 451 kts 13°
2026-05-07 19:07 -24.23911 33.20694 34917 ft 450 kts 13°
2026-05-07 19:07 -24.18003 33.23109 34918 ft 448 kts 13°
2026-05-07 19:08 -24.12097 33.25518 34922 ft 450 kts 13°
2026-05-07 19:08 -24.06208 33.27919 34925 ft 450 kts 13°
2026-05-07 19:09 -24.01279 33.29922 34926 ft 451 kts 13°
2026-05-07 19:09 -23.95322 33.32342 34928 ft 451 kts 13°
2026-05-07 19:10 -23.89406 33.34744 34928 ft 449 kts 13°
2026-05-07 19:10 -23.82499 33.37546 34932 ft 449 kts 13°
2026-05-07 19:11 -23.77576 33.39540 34927 ft 450 kts 13°
2026-05-07 19:11 -23.70705 33.42321 34924 ft 449 kts 13°
2026-05-07 19:12 -23.64790 33.44713 34922 ft 449 kts 13°
2026-05-07 19:12 -23.59967 33.46657 34923 ft 452 kts 13°
2026-05-07 19:13 -23.54036 33.49050 34924 ft 450 kts 13°
2026-05-07 19:13 -23.47156 33.51835 34929 ft 450 kts 13°
2026-05-07 19:14 -23.42329 33.53796 34930 ft 451 kts 13°
2026-05-07 19:14 -23.36411 33.56204 34933 ft 449 kts 13°
2026-05-07 19:15 -23.29534 33.58992 34930 ft 451 kts 13°
2026-05-07 19:15 -23.23599 33.61316 34933 ft 449 kts 12°
2026-05-07 19:16 -23.18644 33.63159 34939 ft 449 kts 12°
2026-05-07 19:16 -23.12676 33.65356 34940 ft 448 kts 12°
2026-05-07 19:17 -23.05708 33.67928 34939 ft 448 kts 12°
2026-05-07 19:17 -22.99785 33.70123 34946 ft 448 kts 12°
2026-05-07 19:18 -22.94821 33.71964 34949 ft 449 kts 12°
2026-05-07 19:18 -22.87896 33.74538 34954 ft 449 kts 12°
2026-05-07 19:19 -22.82980 33.76364 34948 ft 449 kts 12°
2026-05-07 19:19 -22.76037 33.78941 34943 ft 448 kts 12°
2026-05-07 19:20 -22.71079 33.80779 34943 ft 448 kts 12°
2026-05-07 19:20 -22.64171 33.83335 34948 ft 448 kts 12°
2026-05-07 19:21 -22.59249 33.85157 34950 ft 448 kts 12°
2026-05-07 19:21 -22.52287 33.87728 34954 ft 448 kts 12°
2026-05-07 19:22 -22.47302 33.89569 34962 ft 449 kts 12°
2026-05-07 19:22 -22.40395 33.92119 34960 ft 448 kts 12°
2026-05-07 19:23 -22.35546 33.93908 34966 ft 449 kts 12°
2026-05-07 19:23 -22.29707 33.96059 34963 ft 447 kts 12°
2026-05-07 19:24 -22.22771 33.98617 34969 ft 450 kts 12°
2026-05-07 19:24 -22.17833 34.00434 34969 ft 447 kts 11°
2026-05-07 19:25 -22.11849 34.02631 34975 ft 448 kts 11°
2026-05-07 19:25 -22.05022 34.05096 34600 ft 449 kts 11°
2026-05-07 19:26 -22.03005 34.05823 34417 ft 447 kts 11°
2026-05-07 19:26 -22.00070 34.06881 34147 ft 444 kts 12°
2026-05-07 19:26 -21.97137 34.07938 33879 ft 444 kts 12°
2026-05-07 19:26 -21.93186 34.09359 33511 ft 446 kts 12°
2026-05-07 19:27 -21.91196 34.10074 33327 ft 446 kts 12°
2026-05-07 19:27 -21.87388 34.11445 32985 ft 445 kts 12°
2026-05-07 19:27 -21.85421 34.12154 32807 ft 445 kts 12°
2026-05-07 19:27 -21.81519 34.13559 32452 ft 446 kts 12°
2026-05-07 19:28 -21.79527 34.14275 32275 ft 446 kts 12°
2026-05-07 19:28 -21.76545 34.15347 32015 ft 446 kts 12°
2026-05-07 19:28 -21.73576 34.16414 31751 ft 448 kts 12°
2026-05-07 19:28 -21.70630 34.17473 31489 ft 448 kts 12°
2026-05-07 19:29 -21.66683 34.18893 31142 ft 442 kts 12°
2026-05-07 19:29 -21.63743 34.19952 30879 ft 441 kts 12°
2026-05-07 19:29 -21.61786 34.20655 30707 ft 442 kts 12°
2026-05-07 19:29 -21.57864 34.22061 30361 ft 438 kts 12°
2026-05-07 19:30 -21.54983 34.23095 30104 ft 436 kts 13°
2026-05-07 19:30 -21.52094 34.24131 29846 ft 434 kts 13°
2026-05-07 19:30 -21.49215 34.25162 29588 ft 432 kts 12°
2026-05-07 19:30 -21.47264 34.25859 29416 ft 433 kts 13°
2026-05-07 19:31 -21.43465 34.27219 29075 ft 429 kts 12°
2026-05-07 19:31 -21.41574 34.27896 28905 ft 428 kts 13°
2026-05-07 19:31 -21.37767 34.29258 28559 ft 425 kts 13°
2026-05-07 19:31 -21.34976 34.30251 28308 ft 422 kts 12°
2026-05-07 19:32 -21.33108 34.30914 28141 ft 423 kts 13°
2026-05-07 19:32 -21.29340 34.32248 27803 ft 423 kts 13°
2026-05-07 19:32 -21.27453 34.32917 27631 ft 422 kts 13°
2026-05-07 19:32 -21.23668 34.34265 27287 ft 420 kts 13°
2026-05-07 19:33 -21.21814 34.34925 27116 ft 417 kts 13°
2026-05-07 19:33 -21.18107 34.36245 26781 ft 417 kts 13°
2026-05-07 19:33 -21.15321 34.37236 26527 ft 415 kts 13°
2026-05-07 19:33 -21.12526 34.38232 26270 ft 414 kts 13°
2026-05-07 19:34 -21.09851 34.39187 26024 ft 413 kts 13°
2026-05-07 19:34 -21.08001 34.39846 25854 ft 412 kts 14°
2026-05-07 19:34 -21.05277 34.40825 25603 ft 410 kts 13°
2026-05-07 19:34 -21.01660 34.42114 25271 ft 410 kts 13°
2026-05-07 19:35 -20.99833 34.42768 25101 ft 410 kts 14°
2026-05-07 19:35 -20.96264 34.44349 24760 ft 409 kts 21°
2026-05-07 19:35 -20.94559 34.45274 24595 ft 410 kts 23°
2026-05-07 19:35 -20.91208 34.47284 24262 ft 410 kts 25°
2026-05-07 19:36 -20.88736 34.48841 24010 ft 409 kts 26°
2026-05-07 19:36 -20.86279 34.50416 23750 ft 407 kts 26°
2026-05-07 19:36 -20.83835 34.51986 23339 ft 402 kts 26°
2026-05-07 19:36 -20.81433 34.53524 22815 ft 400 kts 26°
2026-05-07 19:37 -20.79031 34.55054 22245 ft 399 kts 26°
2026-05-07 19:37 -20.76631 34.56576 21661 ft 398 kts 26°
2026-05-07 19:37 -20.75026 34.57590 21239 ft 391 kts 26°
2026-05-07 19:37 -20.71925 34.59548 20538 ft 381 kts 26°
2026-05-07 19:38 -20.69660 34.60969 19944 ft 381 kts 26°
2026-05-07 19:38 -20.68112 34.61937 19553 ft 381 kts 26°
2026-05-07 19:38 -20.65024 34.63868 18782 ft 379 kts 26°
2026-05-07 19:38 -20.62815 34.65250 18231 ft 378 kts 27°
2026-05-07 19:39 -20.60550 34.66669 17625 ft 372 kts 26°
2026-05-07 19:39 -20.58347 34.68049 17104 ft 359 kts 27°
2026-05-07 19:39 -20.56899 34.68958 16767 ft 355 kts 27°
2026-05-07 19:39 -20.54745 34.70303 16184 ft 360 kts 27°
2026-05-07 19:40 -20.52573 34.71655 15640 ft 359 kts 27°
2026-05-07 19:40 -20.50401 34.73009 15134 ft 360 kts 27°
2026-05-07 19:40 -20.47508 34.74817 14347 ft 361 kts 27°
2026-05-07 19:40 -20.46050 34.75727 13973 ft 360 kts 27°
2026-05-07 19:41 -20.43176 34.77522 13235 ft 357 kts 27°
2026-05-07 19:41 -20.41014 34.78870 12675 ft 355 kts 27°
2026-05-07 19:41 -20.38891 34.80192 12132 ft 353 kts 27°
2026-05-07 19:41 -20.36728 34.81540 11594 ft 352 kts 27°
2026-05-07 19:42 -20.34608 34.82858 11026 ft 351 kts 27°
2026-05-07 19:42 -20.33262 34.83697 10704 ft 349 kts 27°
2026-05-07 19:42 -20.31157 34.85010 10376 ft 340 kts 27°
2026-05-07 19:42 -20.28481 34.86683 10183 ft 318 kts 28°
2026-05-07 19:43 -20.26626 34.87843 10073 ft 296 kts 27°
2026-05-07 19:43 -20.25457 34.88573 9899 ft 288 kts 27°
2026-05-07 19:43 -20.23146 34.90009 9391 ft 284 kts 28°
2026-05-07 19:43 -20.21436 34.91067 9059 ft 282 kts 28°
2026-05-07 19:44 -20.20316 34.91762 8831 ft 282 kts 28°
2026-05-07 19:44 -20.18013 34.93190 8343 ft 279 kts 28°
2026-05-07 19:44 -20.16342 34.94229 8004 ft 277 kts 28°
2026-05-07 19:44 -20.14656 34.95279 7667 ft 275 kts 28°
2026-05-07 19:45 -20.13545 34.95971 7444 ft 274 kts 28°
2026-05-07 19:45 -20.11353 34.97317 6980 ft 271 kts 28°
2026-05-07 19:45 -20.09740 34.98309 6661 ft 261 kts 28°
2026-05-07 19:45 -20.08168 34.99280 6360 ft 259 kts 28°
2026-05-07 19:46 -20.07104 34.99937 6115 ft 261 kts 28°
2026-05-07 19:46 -20.05529 35.00917 5792 ft 261 kts 28°
2026-05-07 19:46 -20.03442 35.02216 5366 ft 259 kts 28°
2026-05-07 19:46 -20.01862 35.03197 5041 ft 257 kts 28°
2026-05-07 19:47 -20.00305 35.04153 4722 ft 256 kts 29°
2026-05-07 19:47 -19.98759 35.05111 4415 ft 254 kts 30°
2026-05-07 19:47 -19.97252 35.06048 4238 ft 242 kts 30°
2026-05-07 19:47 -19.95848 35.06927 4197 ft 224 kts 29°
2026-05-07 19:48 -19.94533 35.07734 4142 ft 206 kts 28°
2026-05-07 19:48 -19.93250 35.08339 3968 ft 200 kts 16°
2026-05-07 19:48 -19.91885 35.08694 3714 ft 198 kts 13°
2026-05-07 19:48 -19.90585 35.09003 3494 ft 196 kts 14°
2026-05-07 19:49 -19.89280 35.09358 3288 ft 194 kts 14°
2026-05-07 19:49 -19.87949 35.09729 3166 ft 190 kts 15°
2026-05-07 19:49 -19.86663 35.10015 3209 ft 185 kts
2026-05-07 19:49 -19.85413 35.09737 3214 ft 184 kts 329°
2026-05-07 19:50 -19.84461 35.08829 3216 ft 185 kts 307°
2026-05-07 19:50 -19.83850 35.07650 3214 ft 179 kts 289°
2026-05-07 19:50 -19.83543 35.06353 3148 ft 180 kts 283°
2026-05-07 19:50 -19.83279 35.05065 2946 ft 171 kts 283°
2026-05-07 19:51 -19.82990 35.03851 2672 ft 169 kts 285°
2026-05-07 19:51 -19.82692 35.02665 2402 ft 162 kts 285°
2026-05-07 19:51 -19.82401 35.01532 2140 ft 154 kts 284°
2026-05-07 19:51 -19.82136 35.00444 1785 ft 148 kts 282°
2026-05-07 19:52 -19.81863 34.99372 1546 ft 149 kts 283°
2026-05-07 19:52 -19.81591 34.98307 1294 ft 146 kts 283°
2026-05-07 19:52 -19.81318 34.97253 1125 ft 147 kts 283°
2026-05-07 19:52 -19.81138 34.96566 979 ft 145 kts 283°
2026-05-07 19:53 -19.80783 34.95196 706 ft 144 kts 285°
2026-05-07 19:53 -19.80515 34.94153 516 ft 144 kts 283°
2026-05-07 19:53 -19.80249 34.93128 299 ft 141 kts 282°
2026-05-07 19:53 -19.79988 34.92128 123 ft 139 kts 282°
2026-05-07 19:54 -19.79751 34.91160 42 ft 121 kts 283°
2026-05-07 19:54 -19.79581 34.90503 47 ft 62 kts 285°
2026-05-07 19:54 -19.79524 34.90271 48 ft 39 kts 284°
2026-05-07 19:54 -19.79434 34.89911 48 ft 35 kts 285°
2026-05-07 19:55 -19.79395 34.89695 48 ft 17 kts 242°
2026-05-07 19:55 -19.79462 34.89675 49 ft 7 kts 166°
2026-05-07 19:55 -19.79508 34.89691 50 ft 6 kts 161°
2026-05-07 19:55 -19.79574 34.89714 50 ft 12 kts 162°
2026-05-07 19:56 -19.79633 34.89766 50 ft 10 kts 119°
2026-05-07 19:56 -19.79663 34.89845 50 ft 11 kts 107°
2026-05-07 19:56 -19.79688 34.89945 50 ft 17 kts 103°
2026-05-07 19:56 -19.79715 34.90067 50 ft 16 kts 102°
2026-05-07 19:57 -19.79745 34.90171 50 ft 11 kts 108°
2026-05-07 19:57 -19.79732 34.90200 49 ft 3 kts 13°
2026-05-07 19:57 -19.79712 34.90204 49 ft 1 kts 12°
2026-05-07 19:57 -19.79704 34.90205 49 ft 0 kts 13°
2026-05-07 19:58 -19.79697 34.90207 49 ft 0 kts 12°